Location: Stillwell
(40.4602°N, 82.0928°W)
Time: 21:37:14
(UTC-04:00)

SPOT 5 - Pass Details

Date: 25 May 2018
Orbit: 623 x 816 km, 98.4° (Epoch: 21 August)

Event Time Altitude Azimuth Distance (km) Brightness Sun altitude
Exits shadow 23:28:41 36° 223° (SW) 1,020 3.5 -22.7°
Maximum altitude 23:29:47 43° 261° (W) 908 3.5 -22.8°
Drops below altitude 10° 23:34:08 10° 334° (NNW) 2,100 6.4 -23.2°
Sets 23:36:31 0° 341° (NNW) 3,048 7.5 -23.4°
